PBO Station Position Time Series. Reference Frame : NAM14
Format Version,1.1.1
4-character ID,REDM
Station name,REDM_PNGA_OR1998
Begin Date, 1998-07-25
End Date, 2023-06-26
Release Date, 2023-06-27
Reference position, 44.2597669670 North Latitude, -121.1478818188 East Longitude, 919.84981 meters elevation,
Date, North (mm), East (mm), Vertical (mm), North Std. Deviation (mm), East Std. Deviation (mm),              Vertical Std. Deviation (mm), Quality,
1998-07-25,0.00, 0.00, 0.00, 2.24, 1.73, 7.85, repro,
1998-07-26,1.96, -3.52, -1.27, 2.31, 1.76, 8.04, repro,
1998-07-27,1.99, -1.04, 1.48, 2.42, 1.80, 8.40, repro,
1998-07-28,1.95, -1.17, 5.42, 2.33, 1.82, 8.25, repro,
1998-07-29,1.08, -0.12, -4.49, 2.44, 1.93, 8.57, repro,
1998-07-30,3.16, -0.15, 6.29, 2.27, 1.75, 7.96, repro,
1998-07-31,-0.48, -0.47, 5.30, 2.30, 1.83, 8.26, repro,
1998-08-01,0.51, -0.86, 2.32, 2.28, 1.75, 7.82, repro,
1998-08-02,1.24, -0.25, 1.56, 2.31, 1.75, 8.04, repro,
1998-08-03,2.61, -0.88, -3.37, 2.29, 1.76, 7.97, repro,
1998-08-04,1.21, -1.26, 1.88, 2.29, 1.78, 8.03, repro,
1998-08-05,1.48, 0.52, 0.66, 2.26, 1.73, 7.89, repro,
1998-08-06,0.99, -0.67, 6.66, 2.26, 1.73, 7.74, repro,
1998-08-07,1.34, -1.41, 4.83, 2.26, 1.74, 7.88, repro,
1998-08-08,0.66, -1.21, 12.90, 2.25, 1.72, 7.71, repro,
1998-08-09,1.30, -0.90, 8.15, 2.22, 1.72, 7.64, repro,
1998-08-10,1.05, -1.00, 8.81, 2.26, 1.74, 7.91, repro,
1998-08-11,0.03, -0.80, 10.47, 2.23, 1.70, 7.68, repro,
1998-08-12,2.56, -1.59, 8.47, 2.23, 1.74, 7.77, repro,
1998-08-13,3.41, -0.61, -3.26, 2.25, 1.74, 7.85, repro,
1998-08-14,2.71, -2.79, 2.75, 2.29, 1.79, 8.00, repro,
1998-08-15,1.65, 0.31, 8.14, 2.21, 1.72, 7.70, repro,
1998-08-16,0.70, -0.39, 3.20, 2.29, 1.77, 7.95, repro,
1998-08-17,1.94, -0.39, 4.77, 2.26, 1.73, 7.85, repro,
1998-08-18,1.10, -0.52, 7.59, 2.21, 1.70, 7.66, repro,
1998-08-19,2.12, -1.30, 12.53, 2.22, 1.71, 7.66, repro,
1998-08-20,0.10, -0.88, 1.33, 2.23, 1.76, 7.80, repro,
1998-08-21,1.73, -0.15, 3.09, 2.27, 1.75, 7.82, repro,
1998-08-22,2.65, -1.26, -5.17, 2.26, 1.77, 7.95, repro,
1998-08-23,0.13, -0.94, 11.88, 2.23, 1.73, 7.74, repro,
1998-08-24,1.57, 0.37, 11.57, 2.21, 1.72, 7.68, repro,
1998-08-25,1.41, 0.14, 0.42, 2.23, 1.72, 7.69, repro,
1998-08-26,1.33, 0.01, 4.37, 2.29, 1.80, 7.92, repro,
1998-08-27,0.61, 0.84, 10.87, 2.25, 1.74, 7.77, repro,
1998-08-28,1.13, -1.31, 7.94, 2.21, 1.69, 7.63, repro,
1998-08-29,0.84, -0.33, 1.83, 2.21, 1.69, 7.58, repro,
1998-08-30,-0.17, -1.14, 12.19, 2.22, 1.70, 7.61, repro,
1998-08-31,0.71, -0.44, 8.26, 2.24, 1.71, 7.68, repro,
1998-09-01,2.35, 0.30, 6.63, 2.30, 1.77, 7.93, repro,
1998-09-02,1.70, -0.48, 12.37, 2.20, 1.70, 7.62, repro,
1998-09-03,1.32, -0.44, 7.77, 2.21, 1.73, 7.65, repro,
1998-09-04,1.05, 0.01, 9.00, 2.32, 1.79, 8.15, repro,
1998-09-05,0.65, 0.07, 7.70, 2.24, 1.71, 7.67, repro,
1998-09-06,0.38, -0.08, 10.58, 2.20, 1.72, 7.67, repro,
1998-09-07,1.83, -0.28, 9.56, 2.26, 1.80, 8.01, repro,
1998-09-08,0.74, -1.39, 14.48, 2.41, 1.83, 8.34, repro,
1998-09-09,1.73, 0.70, 9.16, 2.31, 1.78, 8.06, repro,
1998-09-10,1.20, 0.88, 15.33, 2.23, 1.72, 7.72, repro,
1998-09-11,0.47, 0.04, 12.63, 2.32, 1.73, 7.80, repro,
1998-09-12,1.49, 0.61, 8.29, 2.21, 1.71, 7.70, repro,
1998-09-13,1.09, -1.68, 8.74, 2.22, 1.70, 7.64, repro,
1998-09-14,0.65, -1.25, 13.77, 2.37, 1.83, 8.12, repro,
1998-09-15,0.81, -0.32, 12.74, 2.33, 1.79, 7.90, repro,
1998-09-16,0.65, -0.68, 21.91, 2.29, 1.79, 7.87, repro,
1998-09-17,0.23, -1.85, 3.50, 2.40, 1.85, 8.26, repro,
1998-09-18,0.40, -0.09, 8.93, 2.42, 1.83, 8.15, repro,
1998-09-19,0.35, 0.90, 3.33, 2.31, 1.77, 7.92, repro,
1998-09-20,2.00, -0.92, 12.55, 2.32, 1.76, 7.85, repro,
1998-09-21,0.50, 0.20, 12.63, 2.33, 1.80, 7.97, repro,
1998-09-22,1.43, -0.08, 2.26, 2.38, 1.81, 8.23, repro,
1998-09-23,2.47, -0.27, 0.22, 2.62, 1.90, 8.73, repro,
1998-09-24,0.93, -0.90, 6.81, 2.55, 1.92, 8.58, repro,
1998-09-25,3.64, -1.85, 12.68, 2.55, 1.90, 8.75, repro,
1998-09-26,0.85, -1.10, 15.53, 2.54, 1.97, 8.65, repro,
1998-09-27,1.96, -0.03, 5.09, 2.32, 1.78, 7.97, repro,
1998-09-28,1.28, -1.03, 10.65, 2.41, 1.82, 8.03, repro,
1998-09-29,2.96, 0.28, 4.17, 2.40, 1.82, 8.09, repro,
1998-09-30,2.17, 0.14, 5.19, 2.35, 1.77, 7.96, repro,
1998-10-01,1.10, -0.56, 6.26, 2.39, 1.82, 8.13, repro,
1998-10-02,1.01, -0.02, 13.58, 2.29, 1.77, 7.97, repro,
1998-10-03,2.23, 0.49, 4.48, 2.84, 2.35, 10.00, repro,
1998-10-04,1.31, -0.97, -2.99, 2.47, 1.90, 8.50, repro,
1998-10-05,0.41, 0.23, 9.64, 2.38, 1.85, 8.17, repro,
1998-10-06,1.22, -1.08, 11.51, 2.50, 1.93, 8.63, repro,
1998-10-07,0.36, 0.01, 22.72, 2.65, 2.02, 8.84, repro,
1998-10-08,1.33, 0.76, 12.12, 2.48, 1.94, 8.39, repro,
1998-10-09,2.64, -1.24, 0.04, 2.70, 2.03, 8.96, repro,
1998-10-10,2.09, -0.31, 1.25, 2.43, 1.92, 8.32, repro,
1998-10-11,3.18, 0.68, 4.59, 2.57, 1.98, 8.48, repro,
1998-10-12,1.82, -0.79, 6.01, 2.60, 2.05, 8.85, repro,
1998-10-13,0.54, -0.84, 12.10, 2.44, 1.92, 8.30, repro,
1998-10-14,2.15, -1.12, 1.25, 2.45, 1.87, 8.32, repro,
1998-10-15,2.36, -0.39, 7.43, 2.55, 1.92, 8.45, repro,
1998-10-16,1.37, -0.62, 1.63, 2.47, 1.92, 8.38, repro,
1998-10-17,2.05, -0.61, 3.17, 2.57, 1.95, 8.68, repro,
1998-10-18,1.92, 0.18, -0.28, 2.57, 2.07, 8.93, repro,
1998-10-19,2.54, -0.51, -6.85, 2.82, 2.15, 9.42, repro,
1998-10-20,0.99, -0.09, 5.08, 2.59, 2.00, 8.91, repro,
1998-10-21,1.86, -0.93, 2.81, 2.43, 1.90, 8.19, repro,
1998-10-22,0.85, -0.90, 4.50, 2.47, 1.92, 8.57, repro,
1998-10-23,1.55, 1.29, -0.30, 2.51, 1.91, 8.58, repro,
1998-10-24,3.12, 0.58, 4.71, 2.57, 2.07, 8.95, repro,
1998-10-25,2.24, -0.54, 6.17, 2.29, 1.81, 8.01, repro,
1998-10-26,1.96, -0.60, 10.71, 2.50, 1.96, 8.44, repro,
1998-10-27,1.19, 0.16, 8.26, 2.53, 1.99, 8.43, repro,
1998-10-28,5.04, -2.74, -2.07, 2.50, 2.01, 8.94, repro,
1998-10-29,2.89, -0.26, 10.45, 2.28, 1.80, 7.90, repro,
1998-10-30,2.56, -0.82, 8.19, 2.33, 1.85, 8.13, repro,
1998-10-31,3.24, -1.20, -5.01, 2.39, 1.83, 8.00, repro,
1998-11-01,2.18, -0.49, 4.43, 2.42, 1.88, 8.22, repro,
1998-11-02,2.16, -0.34, 4.72, 2.51, 1.94, 8.50, repro,
1998-11-03,3.15, -0.57, 0.21, 2.62, 1.93, 8.68, repro,
1998-11-04,4.18, -0.57, 12.41, 2.91, 2.34, 10.04, repro,
1998-11-05,4.79, -2.24, 7.82, 2.40, 1.94, 8.58, repro,
1998-11-06,3.05, -0.49, 4.64, 2.47, 1.91, 8.33, repro,
1998-11-07,2.68, -1.35, 7.95, 2.29, 1.82, 8.10, repro,
1998-11-08,0.97, -0.02, 8.30, 2.41, 1.92, 8.42, repro,
1998-11-09,1.16, -1.67, 8.58, 2.28, 1.79, 7.98, repro,
1998-11-10,1.68, 0.09, 10.46, 2.38, 1.83, 8.09, repro,
1998-11-11,2.71, -0.51, 6.56, 2.37, 1.91, 8.49, repro,
1998-11-12,2.16, 0.30, 3.31, 2.38, 1.81, 8.13, repro,
1998-11-13,-0.25, 0.35, 7.77, 2.43, 1.87, 8.38, repro,
1998-11-14,1.21, 0.53, 8.42, 2.36, 1.81, 8.09, repro,
1998-11-15,-0.85, -1.62, 6.57, 2.32, 1.78, 8.02, repro,
1998-11-16,3.44, -0.64, 8.01, 2.39, 1.79, 8.09, repro,
1998-11-17,2.59, -3.30, 14.38, 2.47, 1.80, 8.20, repro,
1998-11-18,1.60, -1.14, 6.81, 2.29, 1.75, 7.88, repro,
1998-11-19,0.75, -0.67, 2.52, 2.43, 1.83, 8.39, repro,
1998-11-20,2.48, -0.77, 10.30, 2.22, 1.74, 7.67, repro,
1998-11-21,1.46, -0.12, 19.53, 2.55, 1.94, 8.78, repro,
1998-11-22,1.66, -1.37, 8.83, 2.31, 1.76, 7.84, repro,
1998-11-23,2.83, -1.43, 5.69, 2.33, 1.75, 7.96, repro,
1998-11-24,2.44, -0.31, 2.00, 2.31, 1.75, 7.86, repro,
1998-11-25,1.81, -0.55, 2.70, 2.27, 1.74, 7.89, repro,
1998-11-26,3.33, 1.25, 10.58, 2.30, 1.74, 7.84, repro,
1998-11-27,1.18, -0.48, 9.85, 2.33, 1.75, 7.86, repro,
1998-11-28,1.64, -0.77, 6.59, 2.33, 1.76, 7.98, repro,
1998-11-29,2.49, -0.84, 5.42, 2.31, 1.75, 7.99, repro,
1998-11-30,-3.48, 8.37, 6.08, 2.43, 1.81, 8.22, repro,
1998-12-01,2.64, 0.71, 2.70, 2.39, 1.82, 8.19, repro,
1998-12-02,1.18, -1.52, 6.19, 2.34, 1.77, 8.04, repro,
1998-12-03,3.17, -2.56, 4.47, 2.36, 1.80, 8.11, repro,
1998-12-04,2.22, -1.41, 2.10, 2.55, 2.00, 8.76, repro,
1998-12-05,0.66, -0.77, 4.07, 2.55, 1.89, 8.44, repro,
1998-12-06,1.52, -0.49, 7.33, 2.34, 1.82, 8.10, repro,
1998-12-07,-0.00, -1.78, 6.50, 2.41, 1.94, 8.68, repro,
1998-12-08,2.75, -2.09, -15.48, 2.74, 2.02, 9.06, repro,
1998-12-09,0.29, -1.05, -13.16, 2.48, 1.96, 8.62, repro,
1998-12-10,2.52, 0.17, -6.21, 2.32, 1.90, 8.46, repro,
1998-12-11,1.85, -0.17, -8.13, 2.44, 2.04, 8.97, repro,
1998-12-12,1.37, 0.19, -3.97, 2.42, 1.93, 8.61, repro,
1998-12-13,0.69, -1.45, -2.50, 2.35, 1.87, 8.25, repro,
1998-12-14,2.07, -0.28, 1.33, 2.50, 1.93, 9.02, repro,
1998-12-15,0.82, -0.12, -10.53, 2.30, 1.81, 8.23, repro,
1998-12-16,2.83, -0.19, -10.68, 2.38, 1.99, 8.77, repro,
1998-12-17,2.80, -0.36, -3.93, 2.23, 1.73, 7.74, repro,
1998-12-18,3.58, -1.49, -3.40, 2.41, 1.84, 8.43, repro,
1998-12-19,2.82, -1.22, -6.99, 2.40, 1.93, 8.50, repro,
1998-12-20,2.87, -1.32, 2.49, 2.43, 1.97, 8.74, repro,
1998-12-21,2.47, -1.36, -4.79, 2.42, 2.05, 8.94, repro,
1998-12-22,3.24, -0.43, -10.01, 2.50, 2.04, 9.17, repro,
1998-12-23,2.41, -0.48, -9.03, 2.30, 1.84, 8.08, repro,
1998-12-24,3.05, -1.94, -3.47, 2.39, 1.88, 8.38, repro,
1998-12-25,0.38, -2.51, -11.39, 2.63, 2.12, 9.47, repro,
1998-12-26,-0.76, -1.96, -0.65, 2.39, 1.95, 8.67, repro,
1998-12-27,3.86, -1.36, -6.38, 2.44, 2.06, 9.03, repro,
1998-12-28,1.01, -3.61, -8.17, 2.46, 2.01, 9.07, repro,
1998-12-29,4.32, -1.39, -8.86, 2.43, 1.92, 8.66, repro,
1998-12-30,3.52, -1.34, -9.00, 2.68, 2.20, 9.74, repro,
1998-12-31,3.00, 0.35, 9.65, 2.50, 1.90, 8.77, repro,
1999-01-01,2.95, 0.21, -16.83, 2.46, 2.01, 8.82, repro,
1999-01-02,3.94, -1.06, -12.74, 2.61, 2.04, 9.27, repro,
1999-01-03,4.54, -0.45, -12.29, 2.31, 1.91, 8.42, repro,
1999-01-04,4.31, -0.54, -7.42, 2.42, 1.93, 8.72, repro,
1999-01-05,1.37, 0.53, 1.06, 2.46, 1.97, 8.93, repro,
1999-01-06,2.24, -0.93, -6.38, 2.39, 1.96, 8.81, repro,
1999-01-07,2.19, -0.68, -2.27, 2.34, 1.86, 8.41, repro,
1999-01-08,4.05, -0.18, -9.08, 2.27, 1.81, 8.03, repro,
1999-01-09,0.86, -0.19, -11.44, 2.35, 1.87, 8.36, repro,
1999-01-10,2.76, -1.35, -12.43, 2.39, 1.89, 8.71, repro,
1999-01-11,2.53, -1.52, 3.87, 2.41, 1.90, 8.63, repro,
1999-01-12,3.03, -0.81, 6.88, 2.39, 1.91, 8.43, repro,
1999-01-13,3.30, -0.35, -8.16, 2.40, 1.86, 8.37, repro,
1999-01-14,1.43, -0.03, -7.20, 2.47, 1.93, 8.72, repro,
1999-01-15,0.77, -2.26, -1.62, 2.35, 1.86, 8.42, repro,
1999-01-16,1.72, -1.49, -1.67, 2.28, 1.77, 8.02, repro,
1999-01-17,4.08, -0.26, -0.74, 2.40, 1.87, 8.48, repro,
1999-01-18,-0.22, -1.08, 10.29, 2.24, 1.75, 7.81, repro,
1999-01-19,2.95, -0.91, -2.30, 2.25, 1.75, 7.86, repro,
1999-01-20,2.14, 0.29, -2.88, 2.38, 1.87, 8.37, repro,
1999-01-21,0.55, -1.58, -6.11, 2.42, 1.92, 8.62, repro,
1999-01-22,0.70, -0.63, -4.43, 2.27, 1.80, 8.09, repro,
1999-01-23,0.82, -2.08, 1.23, 2.36, 1.89, 8.42, repro,
1999-01-24,2.16, -0.23, -13.24, 2.37, 1.77, 8.12, repro,
1999-01-25,2.30, -0.56, -9.62, 2.45, 1.89, 8.61, repro,
1999-01-26,2.27, -0.07, -7.23, 2.54, 1.95, 9.21, repro,
1999-01-27,1.63, 0.10, -11.74, 2.48, 1.83, 8.49, repro,
1999-01-28,1.48, -1.35, -8.43, 2.29, 1.80, 8.08, repro,
1999-01-29,3.00, 1.50, 1.83, 2.39, 1.82, 8.25, repro,
1999-01-30,2.47, 1.00, -0.57, 2.56, 1.95, 9.05, repro,
1999-01-31,1.64, 0.25, -0.43, 2.56, 2.07, 9.32, repro,
1999-02-01,-0.26, 0.02, 3.55, 2.31, 1.74, 7.93, repro,
1999-02-02,2.74, -1.25, -2.25, 2.43, 1.86, 8.40, repro,
1999-02-03,-2.32, -0.01, -1.79, 2.37, 1.87, 8.40, repro,
1999-02-04,2.24, 0.66, -7.28, 2.42, 1.86, 8.58, repro,
1999-02-05,0.76, 0.12, 2.21, 2.32, 1.78, 8.03, repro,
1999-02-06,2.23, -1.08, 10.33, 2.49, 1.87, 8.88, repro,
1999-02-07,0.62, -0.69, 4.68, 2.38, 1.81, 8.33, repro,
1999-02-08,0.58, -3.20, 0.27, 2.30, 1.80, 8.03, repro,
1999-02-09,2.90, -2.86, 3.51, 2.46, 1.91, 8.87, repro,
1999-02-10,1.38, 0.05, -1.06, 2.32, 1.80, 8.09, repro,
1999-02-11,2.16, 0.57, -11.20, 2.46, 1.84, 8.44, repro,
1999-02-12,2.22, -0.40, -6.34, 2.53, 1.89, 9.06, repro,
1999-02-13,2.57, -2.06, -14.45, 2.30, 1.78, 7.99, repro,
1999-02-14,2.79, -4.66, -13.68, 2.35, 1.79, 8.05, repro,
1999-02-15,1.16, -1.23, -8.40, 2.41, 1.85, 8.51, repro,
1999-02-16,0.38, 0.26, -10.39, 2.37, 1.86, 8.46, repro,
1999-02-17,0.81, -1.99, 1.07, 2.36, 1.81, 8.21, repro,
1999-02-18,-1.18, -1.66, 3.99, 2.32, 1.82, 8.32, repro,
1999-02-19,1.10, -2.32, -4.08, 2.42, 1.86, 8.34, repro,
1999-02-20,2.17, -0.07, -6.32, 2.33, 1.81, 8.11, repro,
1999-02-21,2.23, -2.28, -3.73, 2.27, 1.75, 7.91, repro,
1999-02-22,0.69, 1.53, -5.73, 2.30, 1.79, 8.05, repro,
1999-02-23,0.74, -2.67, -19.23, 2.23, 1.77, 7.80, repro,
1999-02-24,3.28, 1.40, -9.06, 2.29, 1.77, 7.95, repro,
1999-02-25,0.93, -0.90, -2.87, 2.25, 1.72, 7.67, repro,
1999-02-26,1.48, -0.14, -7.80, 2.35, 1.77, 7.95, repro,
1999-02-27,4.02, 1.23, -8.03, 2.32, 1.79, 7.96, repro,
1999-03-11,2.25, -1.58, -13.87, 2.48, 1.90, 8.48, repro,
1999-03-12,3.31, -0.15, -19.37, 2.31, 1.78, 7.92, repro,
1999-03-13,1.82, -0.50, -8.37, 2.24, 1.77, 7.80, repro,
1999-03-14,2.34, -0.77, -13.13, 2.23, 1.73, 7.71, repro,
1999-03-15,1.65, -0.81, -7.42, 2.30, 1.82, 8.07, repro,
1999-03-16,1.91, -0.30, -14.30, 2.48, 1.92, 8.68, repro,
1999-03-17,1.56, -0.51, -15.09, 2.23, 1.73, 7.71, repro,
1999-03-18,2.77, 0.03, -16.25, 2.25, 1.75, 7.75, repro,
1999-03-19,2.75, -0.82, -14.82, 2.38, 1.91, 8.38, repro,
1999-03-20,3.38, -1.30, -11.08, 2.37, 1.93, 8.42, repro,
1999-03-21,1.95, -0.56, -3.97, 2.31, 1.81, 8.05, repro,
1999-03-22,1.47, -0.89, -9.71, 2.42, 1.86, 8.36, repro,
1999-03-23,2.43, -1.04, -11.25, 2.32, 1.83, 8.14, repro,
1999-03-24,2.14, -0.92, -7.71, 2.45, 1.95, 8.67, repro,
1999-03-25,3.01, -0.48, -7.82, 2.41, 1.91, 8.64, repro,
1999-03-26,4.14, -2.40, -9.99, 2.52, 1.99, 8.88, repro,
1999-03-27,2.44, -0.04, -9.13, 2.23, 1.78, 7.92, repro,
1999-03-28,2.71, -1.81, -11.62, 2.35, 1.84, 8.17, repro,
1999-03-29,3.97, -1.21, -15.96, 2.43, 1.93, 8.57, repro,
1999-03-30,2.43, -1.20, -8.66, 2.37, 1.87, 8.39, repro,
1999-03-31,2.61, -0.96, -15.06, 2.63, 2.02, 9.19, repro,
1999-04-01,3.75, -1.43, -1.72, 2.33, 1.88, 8.37, repro,
1999-04-02,2.17, 0.29, -11.36, 2.49, 1.88, 8.34, repro,
1999-04-03,2.34, -1.39, -6.90, 2.33, 1.79, 8.00, repro,
1999-04-04,2.50, -1.50, -11.52, 2.35, 1.80, 8.14, repro,
1999-04-05,2.75, -2.24, -11.74, 2.93, 2.48, 10.73, repro,
1999-04-06,3.21, -1.82, -9.66, 2.34, 1.82, 8.19, repro,
1999-04-07,2.38, -0.63, -9.10, 2.21, 1.71, 7.62, repro,
1999-04-08,2.02, -1.13, -3.81, 2.22, 1.73, 7.72, repro,
1999-04-09,2.38, -2.11, -10.52, 2.27, 1.83, 8.24, repro,
1999-04-10,1.59, -0.26, -15.05, 2.22, 1.73, 7.77, repro,
1999-04-11,2.86, -1.32, -7.96, 2.24, 1.72, 7.75, repro,
1999-04-12,4.29, -1.11, -13.73, 2.21, 1.73, 7.73, repro,
1999-04-13,3.83, -1.67, -18.37, 2.22, 1.72, 7.67, repro,
1999-04-14,2.49, -0.82, -19.24, 2.21, 1.70, 7.59, repro,
1999-04-15,2.90, -1.18, -20.57, 2.22, 1.72, 7.70, repro,
1999-04-16,2.98, -0.88, -13.27, 2.26, 1.81, 8.17, repro,
1999-04-17,2.94, -0.33, -11.49, 2.34, 1.81, 8.30, repro,
1999-04-18,2.68, -1.03, -7.23, 2.21, 1.73, 7.69, repro,
1999-04-19,2.91, -1.04, -6.90, 2.22, 1.73, 7.72, repro,
1999-04-20,1.99, -1.73, -1.48, 2.29, 1.77, 8.02, repro,
1999-04-21,1.72, -0.85, -2.32, 2.26, 1.74, 7.86, repro,
1999-04-22,2.55, -1.44, -12.36, 2.27, 1.75, 7.96, repro,
1999-04-23,4.57, -1.09, -9.39, 2.31, 1.80, 8.13, repro,
1999-04-24,1.13, -2.56, -6.45, 2.28, 1.76, 7.95, repro,
1999-04-25,2.14, -1.25, -3.61, 2.31, 1.80, 8.19, repro,
1999-04-26,2.85, -1.20, -10.85, 2.24, 1.74, 7.73, repro,
1999-04-27,2.45, -2.18, -2.76, 2.24, 1.77, 7.89, repro,
1999-04-28,2.44, -2.07, -13.86, 2.20, 1.73, 7.75, repro,
1999-04-29,2.75, -1.12, -7.62, 2.24, 1.72, 7.80, repro,
1999-04-30,2.44, -1.59, -8.33, 2.24, 1.73, 7.75, repro,
1999-05-01,2.77, -0.25, -1.65, 2.30, 1.80, 8.08, repro,
1999-05-02,1.67, -1.12, 2.97, 2.25, 1.73, 7.85, repro,
1999-05-03,2.30, -1.56, 11.68, 2.27, 1.80, 8.10, repro,
1999-05-04,0.85, -2.83, 6.97, 2.28, 1.80, 8.14, repro,
1999-05-05,3.50, -1.24, -5.67, 2.45, 1.90, 8.62, repro,
1999-05-06,1.58, -1.04, -7.16, 2.25, 1.72, 7.81, repro,
1999-05-07,2.92, -1.66, -11.83, 2.26, 1.73, 7.81, repro,
1999-05-08,0.84, -0.90, -5.15, 2.22, 1.74, 7.79, repro,
1999-05-09,2.07, -2.04, -13.47, 2.25, 1.74, 7.84, repro,
1999-05-10,3.19, -1.43, -8.58, 2.22, 1.72, 7.79, repro,
1999-05-11,2.43, -2.35, -2.43, 2.29, 1.80, 8.04, repro,
1999-05-12,3.90, -0.47, -11.49, 2.32, 1.84, 8.02, repro,
1999-05-13,1.54, -1.24, 0.57, 2.29, 1.80, 7.99, repro,
1999-05-14,3.46, -1.31, -7.52, 2.29, 1.82, 8.17, repro,
1999-05-15,1.91, -1.64, -8.36, 2.25, 1.78, 7.89, repro,
1999-05-16,2.31, -0.79, -11.39, 2.27, 1.79, 7.94, repro,
1999-05-17,-0.11, -2.00, -5.35, 2.34, 1.84, 8.20, repro,
1999-05-18,3.13, -1.04, -10.10, 2.29, 1.79, 7.99, repro,
1999-05-19,1.30, -0.97, -6.02, 2.24, 1.74, 7.97, repro,
1999-05-20,3.87, -2.17, -14.51, 2.28, 1.84, 8.14, repro,
1999-05-21,2.25, -2.24, -9.08, 2.27, 1.79, 7.94, repro,
1999-05-22,2.04, -1.34, -12.84, 2.24, 1.74, 7.80, repro,
1999-05-23,2.48, -1.43, -7.01, 2.23, 1.74, 7.81, repro,
1999-05-24,2.04, -0.77, -6.37, 2.26, 1.74, 7.92, repro,
1999-05-25,2.46, -1.30, -10.67, 2.29, 1.77, 7.97, repro,
1999-05-26,2.86, -1.49, -11.45, 2.24, 1.73, 7.77, repro,
1999-05-27,2.44, -0.75, -5.59, 2.23, 1.75, 7.82, repro,
1999-05-28,2.25, -1.64, -4.73, 2.25, 1.75, 7.79, repro,
1999-05-29,3.28, -1.56, -11.80, 2.23, 1.73, 7.77, repro,
1999-05-30,1.66, -2.03, -12.36, 2.26, 1.75, 7.92, repro,
1999-05-31,-0.61, -4.98, -12.05, 2.23, 1.74, 7.82, repro,
1999-06-01,-1.83, -4.83, 3.39, 2.27, 1.76, 7.91, repro,
1999-06-02,-0.69, -5.27, 2.60, 2.28, 1.77, 7.83, repro,
1999-06-03,1.21, -4.20, 7.34, 2.39, 1.84, 8.05, repro,
1999-06-04,-0.02, -4.46, 3.15, 2.32, 1.78, 7.94, repro,
1999-06-05,-2.87, -3.68, 4.86, 2.42, 1.81, 8.19, repro,
1999-06-06,-1.56, -4.57, 2.35, 2.33, 1.80, 8.02, repro,
1999-06-07,0.76, -4.24, -0.14, 2.37, 1.81, 8.13, repro,
1999-06-08,0.53, -4.12, -1.63, 2.32, 1.79, 7.97, repro,
1999-06-09,0.39, -4.27, -0.05, 2.31, 1.79, 7.91, repro,
1999-06-10,-1.46, -4.30, 4.20, 2.33, 1.82, 8.11, repro,
1999-06-11,-1.20, -4.03, 1.73, 2.40, 1.83, 8.33, repro,
1999-06-12,-0.96, -4.29, -3.32, 2.31, 1.80, 8.09, repro,
1999-06-13,-0.98, -5.22, -4.87, 2.36, 1.81, 8.10, repro,
1999-06-14,0.86, -4.10, -9.10, 2.59, 1.88, 8.64, repro,
1999-06-15,0.53, -3.43, -0.48, 2.47, 1.89, 8.48, repro,
1999-06-16,-2.04, -4.21, -5.14, 2.44, 1.88, 8.31, repro,
1999-06-17,-2.47, -3.65, -0.19, 2.43, 1.89, 8.47, repro,
1999-06-18,-2.29, -4.55, -2.79, 2.32, 1.83, 8.09, repro,
1999-06-19,-1.26, -5.26, 0.16, 2.38, 1.82, 8.20, repro,
1999-06-20,-0.63, -4.18, 5.04, 2.30, 1.77, 7.91, repro,
1999-06-21,-1.19, -3.94, 5.43, 2.30, 1.75, 7.80, repro,
1999-06-22,-0.43, -4.14, 3.45, 2.41, 1.81, 8.09, repro,
1999-06-23,-2.28, -5.52, 11.01, 2.32, 1.80, 8.02, repro,
1999-06-24,-0.38, -1.27, 0.28, 2.37, 1.89, 8.19, repro,
1999-06-25,-1.65, -4.51, 14.05, 2.28, 1.78, 7.88, repro,
1999-06-26,-0.93, -4.20, 7.70, 2.30, 1.80, 7.97, repro,
1999-06-27,-0.89, -4.68, 8.99, 2.41, 1.82, 8.31, repro,
1999-06-28,-0.70, -3.57, 3.32, 2.33, 1.80, 7.98, repro,
1999-06-29,-1.04, -3.23, -3.83, 2.43, 1.90, 8.44, repro,
1999-06-30,2.09, -3.70, -1.35, 2.36, 1.81, 8.18, repro,
1999-07-01,-0.15, -7.19, 14.41, 2.52, 1.96, 8.80, repro,
1999-07-02,-0.91, -2.90, 4.35, 2.46, 1.87, 8.65, repro,
1999-07-03,-2.30, -3.98, 14.89, 2.52, 1.85, 8.60, repro,
1999-07-04,-0.66, -4.22, 2.56, 2.42, 1.82, 8.26, repro,
1999-07-05,-1.61, -3.81, 0.50, 2.35, 1.78, 8.04, repro,
1999-07-06,-0.31, -3.20, 2.40, 2.41, 1.88, 8.47, repro,
1999-07-07,-0.80, -4.57, 10.31, 2.52, 1.85, 8.60, repro,
1999-07-08,-2.32, -4.06, 7.04, 2.47, 1.83, 8.33, repro,
1999-07-09,0.15, -3.62, 6.75, 2.46, 1.82, 8.33, repro,
1999-07-10,-0.81, -2.72, 1.00, 2.41, 1.81, 8.19, repro,
1999-07-11,-1.06, -3.28, -2.20, 2.42, 1.81, 8.21, repro,
1999-07-12,-2.23, -2.56, 3.86, 2.36, 1.80, 8.05, repro,
1999-07-13,-1.31, -4.02, 7.54, 2.41, 1.80, 8.30, repro,
1999-07-14,0.08, -3.55, 3.09, 2.34, 1.76, 7.99, repro,
1999-07-15,0.87, -3.66, -3.84, 2.37, 1.81, 8.25, repro,
1999-07-16,-0.39, -3.96, 10.86, 2.35, 1.76, 8.24, repro,
1999-07-17,-0.80, -3.90, 3.90, 2.32, 1.78, 8.20, repro,
1999-07-18,-1.82, -4.75, 6.83, 2.42, 1.82, 8.41, repro,
1999-07-19,-1.55, -4.74, 1.03, 2.42, 1.80, 8.31, repro,
1999-07-20,-1.71, -3.84, 6.21, 2.41, 1.81, 8.32, repro,
1999-07-21,-2.25, -3.32, 6.41, 2.23, 1.71, 7.70, repro,
1999-07-22,-2.44, -3.79, 0.76, 2.38, 1.79, 8.16, repro,
1999-07-23,-1.34, -3.09, 16.31, 2.34, 1.79, 8.09, repro,
1999-07-24,-2.73, -3.52, 12.29, 2.39, 1.80, 8.32, repro,
1999-07-25,-1.01, -3.63, 5.90, 2.32, 1.75, 7.97, repro,
1999-07-26,-0.45, -3.11, 8.26, 2.41, 1.83, 8.26, repro,
1999-07-27,-0.96, -2.50, 10.59, 2.33, 1.75, 7.97, repro,
1999-07-28,2.03, -0.86, 14.06, 5.13, 3.74, 16.82, repro,
1999-07-29,0.35, -1.20, 11.93, 2.33, 1.80, 8.07, repro,
1999-07-30,0.54, -1.15, 23.55, 2.40, 1.83, 8.26, repro,
1999-07-31,0.94, -1.07, 2.68, 2.26, 1.73, 7.77, repro,
1999-08-01,1.74, -2.26, 5.32, 2.29, 1.76, 7.91, repro,
1999-08-02,2.90, -1.02, -5.50, 2.29, 1.77, 7.96, repro,
1999-08-03,-0.51, -0.04, 2.31, 2.45, 1.88, 8.19, repro,
1999-08-04,1.97, -2.54, 10.04, 2.28, 1.77, 7.93, repro,
1999-08-06,0.24, -0.36, 10.87, 2.38, 1.82, 8.23, repro,
1999-08-07,-0.31, 0.62, 0.15, 2.31, 1.73, 7.87, repro,
1999-08-08,2.21, -1.24, 6.78, 2.27, 1.73, 7.77, repro,
1999-08-09,0.28, -0.38, 7.30, 2.43, 1.86, 8.21, repro,
1999-08-10,0.67, -1.11, 6.56, 2.37, 1.83, 8.26, repro,
1999-08-11,1.53, -2.87, 4.32, 2.44, 1.81, 8.22, repro,
1999-08-12,-0.82, -1.57, 4.46, 2.30, 1.69, 7.74, repro,
1999-08-13,0.41, -2.48, 3.81, 2.27, 1.73, 7.76, repro,
1999-08-14,0.30, -1.48, 6.89, 2.25, 1.72, 7.71, repro,
1999-08-15,1.02, -1.43, 4.52, 2.42, 1.81, 8.16, repro,
1999-08-16,0.78, -0.94, 5.30, 2.24, 1.73, 7.77, repro,
1999-08-17,1.59, -1.19, -2.02, 2.30, 1.76, 7.96, repro,
1999-08-18,1.39, -1.52, 4.84, 2.40, 1.81, 8.16, repro,
1999-08-19,-0.97, -0.44, 12.89, 2.25, 1.71, 7.76, repro,
1999-08-20,0.99, -0.89, 4.25, 2.36, 1.80, 8.09, repro,
1999-08-21,0.84, -0.85, 4.79, 2.23, 1.71, 7.70, repro,
1999-08-22,1.66, -0.24, 3.20, 2.25, 1.74, 7.86, repro,
1999-08-23,0.36, -0.24, 6.65, 2.37, 1.79, 8.07, repro,
1999-08-24,0.48, 0.50, 9.79, 2.38, 1.76, 8.05, repro,
1999-08-25,-0.61, -0.87, 12.32, 2.41, 1.77, 8.17, repro,
1999-08-26,-0.78, -0.88, 8.23, 2.45, 1.79, 8.36, repro,
1999-08-27,0.43, -0.16, 11.55, 2.30, 1.81, 8.04, repro,
1999-08-28,0.26, -0.95, 9.86, 2.31, 1.79, 8.07, repro,
1999-08-29,2.19, -0.03, 4.68, 2.38, 1.86, 9.05, repro,
1999-08-30,1.30, 0.19, 14.58, 2.40, 1.88, 8.45, repro,
1999-08-31,1.43, -1.21, 9.95, 2.40, 1.86, 8.37, repro,
1999-09-01,2.18, -1.12, 11.58, 2.56, 1.93, 8.69, repro,
1999-09-02,1.34, -0.63, 3.57, 2.46, 1.86, 8.42, repro,
1999-09-03,1.07, -1.19, 8.33, 2.45, 1.89, 8.24, repro,
1999-09-04,1.96, 0.37, 5.10, 2.53, 1.96, 8.62, repro,
1999-09-05,1.76, 0.38, 4.90, 2.35, 1.82, 8.27, repro,
1999-09-06,1.87, -2.71, 9.87, 2.41, 1.81, 8.31, repro,
1999-09-07,1.33, -0.89, 5.24, 2.62, 1.89, 8.78, repro,
1999-09-08,2.63, -0.14, 3.98, 2.55, 1.88, 8.77, repro,
1999-09-09,2.54, -0.20, -0.49, 2.54, 1.90, 8.42, repro,
1999-09-10,1.00, -0.79, 6.77, 2.38, 1.81, 8.23, repro,
1999-09-11,0.39, -0.28, 4.20, 2.50, 1.88, 8.34, repro,
1999-09-12,1.36, 0.85, 7.11, 2.44, 1.83, 8.10, repro,
1999-09-13,0.51, 0.35, 6.71, 2.38, 1.72, 7.79, repro,
1999-09-14,0.79, 0.21, 4.43, 2.34, 1.77, 7.90, repro,
1999-09-15,0.75, -0.64, 9.64, 2.47, 1.85, 8.16, repro,
1999-09-16,0.82, -0.56, 13.46, 2.49, 1.88, 8.42, repro,
1999-09-17,0.54, 0.19, 11.14, 2.62, 1.95, 8.64, repro,
1999-09-18,1.19, -0.41, 11.04, 2.51, 1.89, 8.14, repro,
1999-09-19,0.35, -0.39, 9.17, 2.41, 1.78, 7.94, repro,
1999-09-20,2.28, 1.17, 4.03, 2.48, 1.91, 8.25, repro,
1999-09-21,0.17, 1.02, 1.11, 2.53, 1.89, 8.43, repro,
1999-09-22,0.33, 0.26, 4.47, 2.53, 1.89, 8.54, repro,
1999-09-23,0.93, -0.68, 9.55, 2.43, 1.89, 8.30, repro,
1999-09-24,0.58, -0.15, 9.67, 2.46, 1.84, 8.26, repro,
1999-09-25,3.19, -0.87, 6.25, 2.43, 1.90, 8.48, repro,
1999-09-26,1.28, -0.31, 4.64, 2.74, 2.09, 9.39, repro,
1999-09-27,1.00, 0.25, 5.95, 2.72, 2.09, 9.24, repro,
1999-09-28,1.33, 0.13, -1.97, 2.70, 2.12, 9.14, repro,
1999-09-29,1.95, 0.07, -8.41, 2.84, 2.18, 9.59, repro,
1999-09-30,0.92, -0.59, 5.27, 2.83, 2.24, 9.64, repro,
1999-10-01,1.67, -0.34, 6.69, 2.84, 2.18, 9.72, repro,